Location: ??
(35.4627°N, 139.3695°E)
Time: 07:51:39
(UTC+00:00)

Cosmos 1633 - Pass Details

Date: 25 November 2020
Orbit: 462 x 479 km, 82.5° (Epoch: 17 January)

Event Time Altitude Azimuth Distance (km) Brightness Sun altitude
Rises 19:24:38 0° 174° (S) 2,475 6.3 -24.9°
Reaches altitude 10° 19:26:45 10° 168° (SSE) 1,605 5.4 -24.5°
Maximum altitude 19:30:07 47° 94° (E) 625 3.4 -23.8°
Drops below altitude 10° 19:33:31 10° 19° (NNE) 1,618 5.3 -23.1°
Sets 19:35:39 0° 14° (NNE) 2,499 6.2 -22.7°
